Weather History for KMYF - February, 2013

Change the Weather History Date:

Tuesday, February 5, 2013

  Actual Average Record
Temperature  
Mean Temperature 53 °F -  
Max Temperature 55 °F 62 °F 84 °F (2007)
Min Temperature 51 °F 45 °F 39 °F (2002)
Degree Days  
Heating Degree Days 12    
Growing Degree Days 3 (Base 50)    
Moisture  
Dew Point 48 °F    
Average Humidity 85    
Maximum Humidity 96    
Minimum Humidity 75    
Precipitation  
Precipitation 0.00 in - - ()
Sea Level Pressure  
Sea Level Pressure 30.05 in    
Wind  
Wind Speed 2 mph (West)    
Max Wind Speed 7 mph    
Max Gust Speed -    
Visibility 5 miles    
Events      
Averages and records for this station are not official NWS values.
T = Trace of Precipitation, MM = Missing Value Source: NWS Daily Summary

Daily Weather History Graph

Daily Weather History Graph

Search for Another Location

Airport or City:

Trip Planner

Search our weather history database for the weather conditions in past years. The results will help you decide how hot, cold, wet, or windy it might be!

Date:

Astronomy

Feb. 05, 2013 Rise Set
Actual Time 6:40 AM PST 5:25 PM PST
Civil Twilight 6:14 AM PST 5:50 PM PST
Nautical Twilight 5:45 AM PST 6:20 PM PST
Astronomical Twilight 5:16 AM PST 6:49 PM PST
Moon 2:21 AM PST (2/5) 12:53 PM PST (2/5)
Length of Visible Light 11h 36m
Length of Day
10h 44m
Waning Crescent, 25% of the Moon is Illuminated
Feb 5
Waning Crescent
Feb 9
New
Feb 17
First Quarter
Feb 25
Full
Mar 4
Last Quarter

Hourly Weather History & Observations

Time (PST) Temp. Dew Point Humidity Pressure Visibility Wind Dir Wind Speed Gust Speed Precip Events Conditions
12:53 AM 52.0 °F 48.9 °F 89% 30.06 in 5.0 mi Calm Calm - N/A   Overcast
1:12 AM 51.8 °F 50.0 °F 94% 30.06 in 3.0 mi Calm Calm - N/A   Overcast
1:29 AM 51.8 °F 50.0 °F 94% 30.06 in 2.0 mi ENE 3.5 mph - N/A   Overcast
1:40 AM 51.8 °F 50.0 °F 94% 30.06 in 1.8 mi Calm Calm - N/A   Overcast
1:53 AM 51.1 °F 50.0 °F 96% 30.05 in 1.2 mi Calm Calm - N/A   Overcast
2:53 AM 51.1 °F 50.0 °F 96% 30.04 in 1.0 mi NE 3.5 mph - N/A   Overcast
3:53 AM 51.1 °F 50.0 °F 96% 30.03 in 1.5 mi Calm Calm - N/A   Overcast
4:53 AM 51.1 °F 50.0 °F 96% 30.02 in 1.0 mi South 3.5 mph - N/A   Overcast
5:53 AM 51.1 °F 50.0 °F 96% 30.02 in 1.2 mi South 4.6 mph - N/A   Overcast
6:40 AM 51.8 °F 50.0 °F 94% 30.04 in 1.0 mi Calm Calm - N/A   Overcast
6:53 AM 51.1 °F 48.9 °F 92% 30.05 in 1.0 mi West 5.8 mph - N/A   Overcast
7:53 AM 51.1 °F 48.0 °F 89% 30.09 in 4.0 mi Calm Calm - N/A   Overcast
8:00 AM 51.8 °F 48.2 °F 88% 30.09 in 5.0 mi Calm Calm - N/A   Overcast
8:53 AM 52.0 °F 48.0 °F 86% 30.10 in 5.0 mi Calm Calm - N/A   Overcast
9:53 AM 52.0 °F 48.0 °F 86% 30.12 in 4.0 mi SW 5.8 mph - N/A   Overcast
10:42 AM 53.6 °F 48.2 °F 82% 30.11 in 5.0 mi South 3.5 mph - N/A   Haze
10:53 AM 53.1 °F 48.0 °F 83% 30.11 in 6.0 mi South 4.6 mph - N/A   Haze
11:53 AM 54.0 °F 48.0 °F 80% 30.08 in 7.0 mi Calm Calm - N/A   Overcast
12:53 PM 55.9 °F 48.0 °F 75% 30.04 in 6.0 mi NNW 4.6 mph - N/A   Haze
1:51 PM 55.4 °F 48.2 °F 77% 30.02 in 7.0 mi WSW 4.6 mph - N/A   Overcast
1:53 PM 55.9 °F 48.0 °F 75% 30.01 in 7.0 mi West 5.8 mph - N/A   Overcast
2:53 PM 55.9 °F 48.0 °F 75% 30.01 in 9.0 mi West 5.8 mph - N/A   Overcast
3:37 PM 55.4 °F 48.2 °F 77% 30.01 in 8.0 mi WNW 6.9 mph - N/A   Overcast
3:53 PM 54.0 °F 48.0 °F 80% 30.01 in 7.0 mi NNW 4.6 mph - N/A   Overcast
4:53 PM 54.0 °F 46.9 °F 77% 30.01 in 8.0 mi Calm Calm - N/A   Overcast
5:53 PM 54.0 °F 46.9 °F 77% 30.02 in 10.0 mi Calm Calm - N/A   Overcast
6:53 PM 54.0 °F 46.9 °F 77% 30.04 in 10.0 mi NW 5.8 mph - N/A   Overcast
7:53 PM 54.0 °F 46.9 °F 77% 30.04 in 10.0 mi NNW 3.5 mph - N/A   Overcast
8:53 PM 54.0 °F 46.0 °F 75% 30.04 in 10.0 mi NW 4.6 mph - N/A   Overcast
9:53 PM 54.0 °F 46.0 °F 75% 30.04 in 10.0 mi WNW 4.6 mph - N/A   Overcast
11:53 PM 54.0 °F 46.0 °F 75% 30.04 in 10.0 mi WSW 4.6 mph - N/A   Overcast